Location: Hylvaty SDH
(49.9612°N, 16.4057°E)
Time: 21:13:50
(UTC+01:00)

Vanguard 1 Rocket - Pass Details

Date: 04 October 2020
Orbit: 656 x 4221 km, 34.3° (Epoch: 30 October)

Event Time Altitude Azimuth Distance (km) Brightness Sun altitude
Rises 18:21:59 0° 239° (WSW) 4,668 12.5 -0.3°
Reaches altitude 10° 18:24:43 10° 232° (SW) 4,038 11.8 -0.7°
Maximum altitude 18:35:19 42° 166° (SSE) 3,367 10.2 -2.4°
Drops below altitude 10° 18:53:58 10° 105° (ESE) 6,915 11.3 -5.4°
Enters shadow 18:57:29 - 102° (ESE) 7,645 11.4 -6.0°
Sets 19:00:32 0° 100° (E) 8,260 - -6.4°
